Ubon Ratchathani, Thailand

7:58 AM ICT on February 11, 2016 (GMT +0700)
Ubon Ratchathani

Weather History for VTUU - February, 2014

Change the Weather History Date:

Saturday, February 15, 2014

  Actual Average Record
Temperature  
Mean Temperature 73 °F -  
Max Temperature 87 °F 94 °F - ()
Min Temperature 59 °F 70 °F - ()
Cooling Degree Days 8    
Growing Degree Days 23 (Base 50)    
Moisture  
Dew Point 63 °F    
Average Humidity 68    
Maximum Humidity 88    
Minimum Humidity 37    
Precipitation  
Precipitation 0.00 in 0.03 in - ()
Sea Level Pressure  
Sea Level Pressure 29.91 in    
Wind  
Wind Speed 3 mph ()    
Max Wind Speed 6 mph    
Max Gust Speed -    
Visibility 5.3 miles    
Events      
T = Trace of Precipitation, MM = Missing Value Source: Averaged Metar Reports

Daily Weather History Graph

Daily Weather History Graph

Search for Another Location

Airport or City:

Trip Planner

Search our weather history database for the weather conditions in past years. The results will help you decide how hot, cold, wet, or windy it might be!

Date:

Astronomy

Feb. 15, 2014 Rise Set
Actual Time 6:25 AM ICT 6:04 PM ICT
Civil Twilight 6:03 AM ICT 6:26 PM ICT
Nautical Twilight 5:38 AM ICT 6:51 PM ICT
Astronomical Twilight 5:12 AM ICT 7:16 PM ICT
Moon 6:21 PM ICT (2/15) 6:15 AM ICT (2/15)
Length of Visible Light 12h 22m
Length of Day
11h 38m
Full, 100% of the Moon is Illuminated
Feb 15
Full
Feb 23
Last Quarter
Mar 1
New
Mar 8
First Quarter
Mar 17
Full

Hourly Weather History & Observations

Time (ICT) Temp. Heat Index Dew Point Humidity Pressure Visibility Wind Dir Wind Speed Gust Speed Precip Events Conditions
1:00 AM 64 °F - 58 °F 75% 29.93 in 5 mi NNE 3.5 mph - -   Mist
1:00 AM 64.4 °F - 59.0 °F 83% 29.92 in 5.0 mi NNE 3.5 mph - N/A   Mostly Cloudy
4:00 AM 63 °F - 58 °F 78% 29.93 in 5 mi NE 3.5 mph - -   Mist
4:00 AM 62.6 °F - 57.2 °F 82% 29.92 in 5.0 mi NE 3.5 mph - N/A   Unknown
5:00 AM 60.8 °F - 57.2 °F 88% 29.95 in 5.0 mi NNE 2.3 mph - N/A   Unknown
6:00 AM 60.8 °F - 57.2 °F 88% 29.95 in 5.0 mi NNE 2.3 mph - N/A   Unknown
6:30 AM 60.8 °F - 57.2 °F 88% 29.95 in 5.0 mi NE 2.3 mph - N/A   Unknown
7:00 AM 61 °F - 56 °F 78% 30.00 in 5 mi NNE 3.5 mph - -   Mist
7:00 AM 60.8 °F - 57.2 °F 88% 29.95 in 5.0 mi NNE 2.3 mph - N/A   Unknown
8:00 AM 64.4 °F - 59.0 °F 83% 29.98 in 5.6 mi NE 5.8 mph - N/A   Unknown
9:00 AM 68.0 °F - 59.0 °F 73% 29.98 in 5.6 mi NNE 4.6 mph - N/A   Mostly Cloudy
10:00 AM 73 °F - 62 °F 59% 30.01 in 6 mi NNE 4.6 mph - -   Mist
10:00 AM 73.4 °F - 60.8 °F 65% 30.01 in 5.6 mi NE 5.8 mph - N/A   Mostly Cloudy
11:00 AM 77.0 °F - 60.8 °F 57% 29.98 in 5.6 mi ESE 4.6 mph - N/A   Mostly Cloudy
12:00 PM 78.8 °F - 62.6 °F 57% 29.95 in 5.6 mi ESE 4.6 mph - N/A   Mostly Cloudy
1:00 PM 81 °F - 65 °F 49% 29.92 in 6 mi SW 5.8 mph - -   Haze
1:00 PM 80.6 °F 82.3 °F 64.4 °F 58% 29.92 in 5.6 mi SW 5.8 mph - N/A   Mostly Cloudy
2:00 PM 82.4 °F 84.6 °F 66.2 °F 58% 29.86 in 5.6 mi South 3.5 mph - N/A   Mostly Cloudy
3:00 PM 84.2 °F 85.6 °F 64.4 °F 51% 29.83 in 5.6 mi SE 4.6 mph - N/A   Unknown
4:00 PM 86 °F - 64 °F 37% 29.83 in 6 mi WSW 3.5 mph - -   Haze
4:00 PM 86.0 °F 87.3 °F 64.4 °F 48% 29.83 in 5.6 mi WSW 3.5 mph - N/A   Unknown
5:00 PM 84.2 °F 85.6 °F 64.4 °F 51% 29.83 in 5.6 mi Calm Calm - N/A   Unknown
5:30 PM 84.2 °F 86.6 °F 66.2 °F 55% 29.83 in 5.0 mi NE 2.3 mph - N/A   Unknown
6:00 PM 82.4 °F 84.6 °F 66.2 °F 58% 29.83 in 5.0 mi NE 2.3 mph - N/A   Unknown
7:00 PM 81 °F - 66 °F 52% 29.84 in 5 mi Calm Calm - -   Haze
7:00 PM 80.6 °F 82.7 °F 66.2 °F 61% 29.83 in 5.0 mi Calm Calm - N/A   Unknown
8:00 PM 78.8 °F - 68.0 °F 69% 29.86 in 5.0 mi Calm Calm - N/A   Unknown
9:00 PM 77.0 °F - 68.0 °F 74% 29.89 in 5.0 mi Calm Calm - N/A   Unknown
10:00 PM 76 °F - 68 °F 70% 29.90 in 5 mi Calm Calm - -   Mist
10:00 PM 75.2 °F - 68.0 °F 78% 29.89 in 5.0 mi Calm Calm - N/A   Unknown
11:00 PM 73.4 °F - 68.0 °F 83% 29.89 in 5.0 mi NE 3.5 mph - N/A   Unknown